Creston, IA

9:11 PM CDT on March 24, 2017 (GMT -0500)
Creston Municipal

Weather History for KCSQ - October, 2012

Change the Weather History Date:

Sunday, October 14, 2012

  Actual Average Record
Temperature  
Mean Temperature 54 °F -  
Max Temperature 62 °F 67 °F 85 °F (1975)
Min Temperature 46 °F 43 °F 23 °F (2006)
Degree Days  
Heating Degree Days 11    
Growing Degree Days 4 (Base 50)    
Moisture  
Dew Point 46 °F    
Average Humidity 75    
Maximum Humidity 94    
Minimum Humidity 39    
Precipitation  
Precipitation 0.69 in - - ()
Sea Level Pressure  
Sea Level Pressure 29.78 in    
Wind  
Wind Speed 15 mph (NW)    
Max Wind Speed 28 mph    
Max Gust Speed 34 mph    
Visibility 9 miles    
Events Rain    
Averages and records for this station are not official NWS values.
T = Trace of Precipitation, MM = Missing Value Source: NWS Daily Summary

Daily Weather History Graph

Daily Weather History Graph

Search for Another Location

Airport or City:

Trip Planner

Search our weather history database for the weather conditions in past years. The results will help you decide how hot, cold, wet, or windy it might be!

Date:

Astronomy

Oct. 14, 2012 Rise Set
Actual Time 7:28 AM CDT 6:37 PM CDT
Civil Twilight 7:00 AM CDT 7:05 PM CDT
Nautical Twilight 6:28 AM CDT 7:37 PM CDT
Astronomical Twilight 5:56 AM CDT 8:08 PM CDT
Moon 6:28 AM CDT (10/14) 5:57 PM CDT (10/14)
Length of Visible Light 12h 04m
Length of Day
11h 09m
Waning Crescent, 1% of the Moon is Illuminated
Oct 14
Waning Crescent
Oct 15
New
Oct 21
First Quarter
Oct 29
Full
Nov 6
Last Quarter

Hourly Weather History & Observations

Time (CDT) Temp. Windchill Dew Point Humidity Pressure Visibility Wind Dir Wind Speed Gust Speed Precip Events Conditions
12:15 AM 57.2 °F - 55.4 °F 94% 29.62 in 10.0 mi ENE 19.6 mph - 0.10 in Rain Light Rain
12:35 AM 57.2 °F - 55.4 °F 94% 29.62 in 10.0 mi ENE 13.8 mph - 0.12 in Rain Light Rain
12:55 AM 57.2 °F - 55.4 °F 94% 29.61 in 10.0 mi ENE 12.7 mph - 0.12 in   Unknown
1:15 AM 57.2 °F - 55.4 °F 94% 29.62 in 10.0 mi East 6.9 mph - N/A   Unknown
1:35 AM 57.2 °F - 55.4 °F 94% 29.61 in 10.0 mi East 6.9 mph - N/A   Unknown
1:55 AM 57.2 °F - 55.4 °F 94% 29.59 in 10.0 mi East 12.7 mph - N/A   Unknown
2:15 AM 57.2 °F - 55.4 °F 94% 29.60 in 10.0 mi East 9.2 mph - N/A   Unknown
2:35 AM 57.2 °F - 55.4 °F 94% 29.60 in 10.0 mi East 9.2 mph - N/A   Unknown
2:55 AM 57.2 °F - 55.4 °F 94% 29.60 in 10.0 mi ESE 9.2 mph - N/A   Unknown
3:15 AM 57.2 °F - 55.4 °F 94% 29.60 in 10.0 mi East 5.8 mph - N/A   Unknown
3:35 AM 57.2 °F - 55.4 °F 94% 29.60 in 10.0 mi Calm Calm - N/A   Unknown
3:55 AM 59.0 °F - 55.4 °F 88% 29.59 in 10.0 mi NNW 5.8 mph - N/A Rain Rain
4:15 AM 57.2 °F - 55.4 °F 94% 29.58 in 10.0 mi Calm Calm - N/A   Drizzle
4:35 AM 57.2 °F - 55.4 °F 94% 29.58 in 7.0 mi NNW 6.9 mph - N/A   Drizzle
4:55 AM 57.2 °F - 55.4 °F 94% 29.57 in 7.0 mi NNW 8.1 mph - 0.01 in   Heavy Drizzle
5:15 AM 57.2 °F - 55.4 °F 94% 29.57 in 7.0 mi NNW 12.7 mph - 0.01 in   Drizzle
5:35 AM 57.2 °F - 55.4 °F 94% 29.57 in 7.0 mi NNW 17.3 mph - 0.06 in Rain Heavy Rain
5:55 AM 57.2 °F - 55.4 °F 94% 29.59 in 5.0 mi NW 15.0 mph 23.0 mph 0.24 in Rain Heavy Rain
6:15 AM 55.4 °F - 53.6 °F 94% 29.60 in 10.0 mi NNW 25.3 mph 33.4 mph 0.09 in Rain Rain
6:35 AM 55.4 °F - 51.8 °F 88% 29.61 in 10.0 mi NNW 18.4 mph 26.5 mph 0.15 in Rain Light Rain
6:55 AM 55.4 °F - 51.8 °F 88% 29.61 in 10.0 mi NNW 27.6 mph 34.5 mph 0.20 in Rain Rain
7:15 AM 53.6 °F - 51.8 °F 94% 29.62 in 10.0 mi NNW 21.9 mph 34.5 mph 0.08 in Rain Rain
7:35 AM 53.6 °F - 51.8 °F 94% 29.63 in 10.0 mi NNW 20.7 mph 28.8 mph 0.10 in Rain Light Rain
7:55 AM 53.6 °F - 51.8 °F 94% 29.65 in 10.0 mi NW 19.6 mph 25.3 mph 0.11 in Rain Rain
8:15 AM 53.6 °F - 50.0 °F 88% 29.67 in 10.0 mi NW 19.6 mph 29.9 mph 0.01 in Rain Light Rain
8:35 AM 53.6 °F - 50.0 °F 88% 29.68 in 5.0 mi NW 23.0 mph 29.9 mph 0.01 in   Mist
8:55 AM 53.6 °F - 50.0 °F 88% 29.69 in 4.0 mi NW 23.0 mph 28.8 mph 0.01 in   Mist
9:15 AM 51.8 °F - 48.2 °F 88% 29.70 in 7.0 mi NW 18.4 mph 29.9 mph N/A   Unknown
9:35 AM 51.8 °F - 48.2 °F 88% 29.71 in 7.0 mi NW 20.7 mph 29.9 mph N/A   Unknown
9:55 AM 53.6 °F - 48.2 °F 82% 29.73 in 7.0 mi NW 20.7 mph 26.5 mph N/A   Unknown
10:15 AM 53.6 °F - 48.2 °F 82% 29.74 in 7.0 mi NW 23.0 mph 32.2 mph N/A   Unknown
10:35 AM 53.6 °F - 48.2 °F 82% 29.76 in 7.0 mi NW 25.3 mph 33.4 mph N/A   Unknown
10:55 AM 53.6 °F - 48.2 °F 82% 29.77 in 7.0 mi NW 25.3 mph 32.2 mph N/A   Unknown
11:15 AM 53.6 °F - 48.2 °F 82% 29.78 in 7.0 mi WNW 21.9 mph 33.4 mph N/A   Unknown
11:35 AM 51.8 °F - 46.4 °F 82% 29.80 in 7.0 mi WNW 26.5 mph 34.5 mph N/A   Unknown
11:55 AM 51.8 °F - 44.6 °F 76% 29.81 in 10.0 mi NW 23.0 mph 31.1 mph N/A   Unknown
12:15 PM 51.8 °F - 44.6 °F 76% 29.82 in 10.0 mi NW 23.0 mph 31.1 mph N/A   Unknown
12:35 PM 53.6 °F - 44.6 °F 72% 29.83 in 10.0 mi NW 21.9 mph 27.6 mph N/A   Unknown
12:55 PM 55.4 °F - 46.4 °F 72% 29.84 in 10.0 mi WNW 24.2 mph 29.9 mph N/A   Unknown
1:15 PM 55.4 °F - 44.6 °F 67% 29.85 in 10.0 mi NW 20.7 mph 34.5 mph N/A   Unknown
1:35 PM 57.2 °F - 42.8 °F 59% 29.85 in 10.0 mi NW 24.2 mph 28.8 mph N/A   Unknown
1:55 PM 57.2 °F - 42.8 °F 59% 29.85 in 10.0 mi NW 23.0 mph 32.2 mph N/A   Unknown
2:15 PM 57.2 °F - 42.8 °F 59% 29.86 in 10.0 mi NW 20.7 mph 29.9 mph N/A   Unknown
2:35 PM 59.0 °F - 41.0 °F 51% 29.87 in 10.0 mi NW 20.7 mph 28.8 mph N/A   Unknown
3:15 PM 60.8 °F - 39.2 °F 45% 29.88 in 10.0 mi WNW 20.7 mph 28.8 mph N/A   Unknown
3:35 PM 60.8 °F - 39.2 °F 45% 29.88 in 10.0 mi WNW 20.7 mph 31.1 mph N/A   Unknown
3:55 PM 60.8 °F - 39.2 °F 45% 29.89 in 10.0 mi WNW 25.3 mph 32.2 mph N/A   Unknown
4:15 PM 62.6 °F - 39.2 °F 42% 29.90 in 10.0 mi WNW 16.1 mph 26.5 mph N/A   Unknown
4:35 PM 62.6 °F - 37.4 °F 39% 29.90 in 10.0 mi NW 17.3 mph 28.8 mph N/A   Unknown
4:55 PM 62.6 °F - 39.2 °F 42% 29.91 in 10.0 mi WNW 16.1 mph 21.9 mph N/A   Unknown
5:15 PM 60.8 °F - 37.4 °F 42% 29.91 in 10.0 mi WNW 20.7 mph 27.6 mph N/A   Unknown
5:35 PM 60.8 °F - 37.4 °F 42% 29.92 in 10.0 mi WNW 16.1 mph 21.9 mph N/A   Unknown
5:55 PM 59.0 °F - 37.4 °F 45% 29.92 in 10.0 mi NW 11.5 mph - N/A   Unknown
6:15 PM 57.2 °F - 37.4 °F 48% 29.92 in 10.0 mi WNW 12.7 mph 19.6 mph N/A   Unknown
6:35 PM 55.4 °F - 39.2 °F 54% 29.93 in 10.0 mi WNW 9.2 mph - N/A   Unknown
6:55 PM 53.6 °F - 39.2 °F 58% 29.93 in 10.0 mi West 6.9 mph - N/A   Unknown
7:15 PM 51.8 °F - 39.2 °F 62% 29.94 in 10.0 mi West 5.8 mph - N/A   Unknown
7:35 PM 51.8 °F - 39.2 °F 62% 29.94 in 10.0 mi West 5.8 mph - N/A   Unknown
7:55 PM 50.0 °F - 39.2 °F 66% 29.94 in 10.0 mi West 5.8 mph - N/A   Unknown
8:15 PM 50.0 °F - 39.2 °F 66% 29.95 in 10.0 mi West 4.6 mph - N/A   Unknown
8:35 PM 50.0 °F - 37.4 °F 62% 29.95 in 10.0 mi West 6.9 mph - N/A   Unknown
8:55 PM 48.2 °F - 39.2 °F 71% 29.95 in 10.0 mi West 6.9 mph - N/A   Unknown
9:15 PM 48.2 °F - 39.2 °F 71% 29.95 in 10.0 mi West 8.1 mph - N/A   Unknown
9:35 PM 46.4 °F 43.5 °F 39.2 °F 76% 29.96 in 10.0 mi West 5.8 mph - N/A   Unknown
9:55 PM 46.4 °F 42.9 °F 37.4 °F 71% 29.96 in 10.0 mi West 6.9 mph - N/A   Unknown
10:15 PM 46.4 °F 43.5 °F 37.4 °F 71% 29.96 in 10.0 mi West 5.8 mph - N/A   Unknown
10:35 PM 46.4 °F 42.9 °F 37.4 °F 71% 29.97 in 10.0 mi West 6.9 mph - N/A   Unknown
10:55 PM 46.4 °F 43.5 °F 37.4 °F 71% 29.97 in 10.0 mi WNW 5.8 mph - N/A   Unknown
11:15 PM 46.4 °F 42.4 °F 37.4 °F 71% 29.97 in 10.0 mi WNW 8.1 mph - N/A   Unknown
11:35 PM 46.4 °F 44.3 °F 37.4 °F 71% 29.97 in 10.0 mi WNW 4.6 mph - N/A   Unknown
11:55 PM 46.4 °F 42.9 °F 37.4 °F 71% 29.97 in 10.0 mi WNW 6.9 mph - N/A   Unknown